Dewpoint
77 75 74 76 75 75 73 72 75 77 78 75 77 78 77 77 76 76 75 75 74 74
78 77 75 75 78 75 74 75 76 76 78 77 77 78 76 76 75 76 76 74 74 74
75 77 77 77 78 77 78 78 77 77 77 77 77 77 77 76 75 75 75 75 74 73
73 74 77 75 76 76 76 75 75 76 75 75 74 75 75 75 73 73 73 73 73 72
76 75 74 74 73 73 73 73 74 73 73 72 72 73 73 72 71 71 70 71 71 69
74 72 70 70 71 71 70 70 69 70 70 69 69 70 70 71 70 69 68 66 66 66
70 70 68 68 67 68 69 68 67 67 68 67 67 67 67 66 66 66 66 65 65 65
70 68 67 67 66 66 68 69 68 67 66 65 64 62 66 64 63 63 64 64 64 65
68 66 66 66 65 66 68 68 67 66 65 64 61 62 63 65 64 64 63 61 62 63
67 69 69 68 68 66 66 66 65 64 64 63 61 61 61 64 61 61 61 62 61 58
69 68 68 68 67 67 66 65 64 64 64 63 59 59 60 62 63 63 61 60 61 61
69 68 68 67 67 66 66 65 64 64 64 62 61 58 58 61 63 62 61 57 56 57
69 68 67 68 68 68 66 63 60 62 63 60 58 56 55 59 60 61 59 59 58 57
69 68 68 68 68 66 64 64 62 61 61 60 58 57 54 54 56 52 51 51 54 56
Lifted_Index
-8 -8 -8 -7 -7 -7 -6 -6 -6 -7 -7 -7 -7 -6 -6 -5 -5 -5 -5 -4 -4 -3
-8 -8 -8 -8 -7 -7 -7 -7 -6 -6 -7 -7 -6 -6 -5 -5 -5 -4 -4 -4 -3 -3
-8 -8 -8 -8 -7 -7 -7 -7 -6 -6 -6 -6 -5 -5 -5 -4 -4 -4 -4 -3 -3 -3
-7 -8 -7 -7 -6 -6 -5 -5 -5 -4 -4 -4 -4 -4 -3 -3 -3 -3 -3 -3 -3 -2
-7 -7 -6 -5 -5 -4 -3 -3 -2 -2 -2 -2 -2 -2 -2 -2 -1 -2 -2 -2 -2 -1
-6 -6 -5 -4 -3 -2 -1 -0 0 0 1 1 1 0 -0 -0 -0 -0 -0 -0 0 0
-5 -4 -3 -2 -1 0 1 2 2 2 3 3 3 2 2 1 1 1 1 2 2 2
-2 -2 0 1 2 3 3 3 3 4 4 4 4 3 3 3 3 3 3 3 3 3
1 1 2 3 3 3 3 3 4 5 5 5 5 4 4 4 4 4 4 4 5 5
2 2 2 3 3 3 3 4 5 5 6 6 6 5 4 4 4 4 5 5 6 6
2 2 2 2 3 3 4 4 5 5 6 6 6 6 5 5 4 5 6 7 7 7
2 2 2 3 3 3 4 5 5 5 6 6 7 7 6 5 4 5 6 8 9 9
2 2 3 3 3 4 5 6 6 7 7 8 9 9 8 6 6 6 7 9 10 11
2 3 3 3 3 4 5 6 7 8 8 9 10 10 9 8 8 8 9 9 10 11